Location: Trois-Rivi�res
(46.3500°N, 72.5500°W)
Time: 16:51:54
(UTC-04:00)

Tiangong 1 - Pass Details

Date: 08 October 2017
Orbit: 293 x 320 km, 42.8° (Epoch: 17 October)

Event Time Altitude Azimuth Distance (km) Brightness Sun altitude
Rises 18:58:48 0° 240° (WSW) 2,038 5.9 -8.2°
Reaches altitude 10° 19:00:55 10° 228° (SW) 1,204 4.3 -8.5°
Maximum altitude 19:03:17 27° 167° (SSE) 639 2.0 -8.9°
Enters shadow 19:05:09 13° 111° (ESE) 1,028 2.6 -9.3°
